Home   Weather   Toccoa   Past weeks

Flag for USA Past Weather in Toccoa, Georgia, USA — Yesterday and Last 2 Weeks

63 °F


Feels Like: 63 °F
Forecast: 53 / 68 °F
Wind: 15 mph from Northwest

Location: Clemson-Oconee County Airport

Current Time: Oct 21, 2016 at 7:53:42 PM

Latest Report: Oct 21, 2016 at 6:54 PM

Visibility: 10 mi

Pressure: 29.87 "Hg

Humidity: 41%

Dew Point: 39 °F

Location of ToccoaLocation

Past Weather in Toccoa — Graph


Toccoa Temperature Yesterday

Maximum temperature yesterday: 88 °F (at 1:54 PM)
Minimum temperature yesterday: 63 °F (at 7:54 AM)
Average temperature yesterday: 76 °F

High & Low Weather Summary for the Past Weeks

High89 °F (Oct 19, 1:54 PM)90% (Oct 7, 4:56 PM)30.43 "Hg (Oct 7, 4:56 PM)
Low50 °F (Oct 12, 6:54 AM)18% (Oct 9, 3:54 PM)29.75 "Hg (Oct 21, 6:54 AM)
Average70 °F60%30.12 "Hg
* Reported Oct 6 5:54 PM — Oct 21 5:54 PM, Toccoa, Weather by CustomWeather, © 2016

Note: Actual official high and low records may vary slightly from our data, if they occured in-between our weather recording intervals... More about our weather records


Toccoa Weather History for the Previous 24 Hours

Scroll right to see more
Time TempWeatherWind HumidityBarometerVisibility
5:54 PM
Fri, Oct 21
67 °FSunny.10 mph36%29.86 "Hg10 mi
4:54 PM69 °FScattered clouds.14 mph35%29.84 "Hg10 mi
3:54 PM71 °FSunny.20 mph32%29.82 "Hg10 mi
2:54 PM72 °FSunny.23 mph33%29.81 "Hg10 mi
1:54 PM73 °FPassing clouds.13 mph32%29.81 "Hg10 mi
12:54 PM73 °FSunny.10 mph32%29.81 "Hg10 mi
11:54 AM74 °FSunny.16 mph33%29.81 "Hg10 mi
10:54 AM70 °FSunny.18 mph38%29.80 "Hg10 mi
9:54 AM69 °FSunny.16 mph42%29.78 "Hg10 mi
8:54 AM69 °FScattered clouds.14 mph53%29.76 "Hg10 mi
7:54 AM68 °FPartly sunny.14 mph65%29.75 "Hg10 mi
6:54 AM67 °FOvercast.14 mph73%29.75 "Hg10 mi
5:54 AM65 °FPassing clouds.No wind78%29.75 "Hg10 mi
4:54 AM66 °FClear.No wind75%29.76 "Hg10 mi
3:54 AM67 °FPassing clouds.3 mph73%29.78 "Hg10 mi
2:54 AM69 °FPassing clouds.3 mph68%29.81 "Hg10 mi
1:54 AM70 °FPassing clouds.No wind66%29.83 "Hg10 mi
12:54 AM71 °FClear.No wind66%29.84 "Hg10 mi
11:54 PM
Thu, Oct 20
72 °FClear.No wind64%29.86 "Hg10 mi
10:54 PM73 °FClear.No wind64%29.88 "Hg10 mi
9:54 PM76 °FClear.3 mph54%29.89 "Hg10 mi
8:54 PM77 °FClear.3 mph50%29.90 "Hg10 mi
7:54 PM80 °FClear.3 mph45%29.90 "Hg10 mi
Weather by CustomWeather, © 2016

See weather overviewHow to use our weather pages